Evoluted Directory Listing Script

File Size Last Modified
000 Lit-SWB nach Nr 2017.08.doc 435.5 KB Aug 31st 2017 at 2:08pm
001A Br 1963 H2O2+HClO4 ZulassArb THStgt 56.pdf 4.05 MB Aug 13th 2017 at 11:51am
001C Br 1955 Kometen FacharbMGL 20.pdf 34.54 KB Aug 13th 2017 at 11:51am
001D Br 1961 ÜbersollRadieschen Kosmos 1.pdf 253.73 KB Aug 13th 2017 at 11:51am
002 Br 1966 VegetKegel Mikrokosm 3.pdf 426.97 KB Aug 13th 2017 at 11:51am
003 Br 1967 LatabandFossilien ScienceKabul 8.pdf 1.27 MB Aug 13th 2017 at 11:52am
004 Br 1969 BiolWakhanExk ScienceKabul 5.pdf 615.95 KB Aug 13th 2017 at 11:51am
004A KabulTimes 06 10 1968 WakhExp public 1.jpg 1.96 MB Aug 13th 2017 at 11:52am
004A KabulTimes 06 10 1968 WakhExp public 2.jpg 2.32 MB Aug 13th 2017 at 11:52am
004B KabulTimes 04 11 1967 HiKuExp successful.jpg 1.36 MB Aug 13th 2017 at 11:53am
005 BrRasoul 1969 HybridAnemone Naturwiss 2.pdf 50.82 KB Aug 13th 2017 at 11:52am
006 BrFreyHedge 1969 AfghanBotLit RBGEdinb 8.pdf 817.88 KB Aug 13th 2017 at 11:52am
007 Br 1971 Diarthron1 BotJahrb 7.pdf 514.58 KB Aug 13th 2017 at 11:53am
008 BrKull 1971 OsmZuckerBäumOstAfg FloraIQb 17.pdf 814.47 KB Aug 13th 2017 at 11:53am
009 Br 1971 VegetAlpRegAfgh PlantLSWAEdinb 10.pdf 546.62 KB Aug 13th 2017 at 11:53am
010 Br 1971 PflLebSWAsienPloSWA NatRunds 2.pdf 220.97 KB Aug 13th 2017 at 11:53am
011 BrReshad 1971 TagesgKrascheninNawor BiolPlant 4.pdf 162.69 KB Aug 13th 2017 at 11:53am
012 Br 1972 AlpenrosHiKu JbSchAlpPflTier 12.pdf 1.17 MB Aug 13th 2017 at 11:53am
013 Br 1971 EiflAmeisKhoshi BerDBotGes 18.pdf 788 KB Aug 13th 2017 at 11:53am
014 Br 1971 ÖkMikroklimlpinHiKu BerDBotGes 10.pdf 511.73 KB Aug 13th 2017 at 11:53am
015 Br 1973 MikroklimÖkolBeobalpinHiku BotJahrb 31.pdf 1.58 MB Aug 13th 2017 at 11:53am
016 KullBr 1972 OsmZuckerBäumeOstAfgIICgPc Flora 18.pdf 1011.67 KB Aug 13th 2017 at 11:53am
017 BrKull 1973 Diarthron2 BotJahrb 12.pdf 1.07 MB Aug 13th 2017 at 11:53am
018 MooreCaldwellBr 1972 MineralIonOsmAtco+EulaUtah Eocol 12.pdf 599.34 KB Aug 13th 2017 at 11:53am
019 Br 1975 ÖkolBeobobWaldgrSafedKoh Vegetatio 9.pdf 941.05 KB Aug 13th 2017 at 11:53am
020 vHedenströmBr 1974 ObligatHalophTissueCult ZPflanzPhys 3.pdf 2.36 MB Aug 13th 2017 at 11:54am
021 Br 1974 AlpNivalFloraHiku BotNot 7.pdf 369.58 KB Aug 13th 2017 at 11:54am
022 LercheBr 1974 PbAutobahn Naturwiss 1.pdf 105.68 KB Aug 13th 2017 at 11:54am
023 BrFrey 1974 VegetstufenZHiku AfghJ 6.pdf 864.29 KB Aug 13th 2017 at 11:54am
024 LercheBr 1975 PbAutobahnBonn 22.pdf 1.28 MB Aug 13th 2017 at 11:54am
025 Br 1975 HaloEbro DechenianaBonn 8.pdf 388.19 KB Aug 13th 2017 at 11:54am
026 BrFreyHedge 1975 BotLitAfghSupplII NotRBGEdinb 19.pdf 1.09 MB Aug 13th 2017 at 11:54am
027 KullBr 1975 FettsäurenAfghTheroph ZPflanzenphys 7.pdf 298.19 KB Aug 13th 2017 at 11:54am
028 Br 1974 WasserSalzHaloUtah BerDBotGes 12.pdf 605.09 KB Aug 13th 2017 at 11:54am
029 BrFrey 1976 BeobVerglöetschHiku AfghJ 6.pdf 1.64 MB Aug 13th 2017 at 11:54am
030 BrFrey 1976 HöchstBergeHiku AfghJ 5.pdf 1 MB Aug 13th 2017 at 11:54am
031 BrFrey 1976 RECHFloraIranica63ff AfghJ 3.pdf 569.32 KB Aug 13th 2017 at 11:54am
034 Br 1987 DistribEcolCystopterisFlIr PlSystEvol 7.pdf 649.93 KB Aug 13th 2017 at 11:54am
035 Br 1983 TempDesertSemidesertAfghIran EcosyWorldV5 49.pdf 35.14 MB Aug 13th 2017 at 12:01pm
036 BrBrU 1977 ErgänzBemHonigbienenAfgh AfghJ 2.pdf 453.26 KB Aug 13th 2017 at 11:55am
037 Br Unger 1977 Afgh Drog I-Gummih Umbellif AfghJ 10.pdf 1.85 MB Aug 13th 2017 at 11:55am
038 Mirazai Br 1978 AfghHaloIChenopNAfgh BotJahrb 14.pdf 767.07 KB Aug 13th 2017 at 11:55am
039 Br 1981 TimeScaleSaltAccumulNCIran TübAtlasVO 10.pdf 404.85 KB Aug 13th 2017 at 11:55am
040 Br 1986 Halo2SaltGradientsIranAfgh ProcRBGEdb 13.pdf 750.44 KB Aug 13th 2017 at 11:56am
041 Br 1988 VegetFloraNivalstHiku NeueBeitrAfghForschBibAfgh 15pdf 572.25 KB Aug 13th 2017 at 11:56am
042 Br 1979 AfghDrogIISüßholz AfghJ 5.pdf 1.06 MB Aug 13th 2017 at 11:58am
043 Br 1982 SignifSalinity Spooner&MannAcadPressLondon 16.pdf 524.63 KB Aug 13th 2017 at 11:58am
044 Br 1981 ErforschFloraVegAfgh RathjensNeueForschAfgh 18.pdf 1.33 MB Aug 13th 2017 at 11:58am
045 Letschert 1986 -Br Hagem eds- Dendro Pinus radiata eru BÖB2 14p.pdf 532.04 KB Aug 13th 2017 at 11:59am
046 Schirmer Br 1982 EcolHalophytes TaskVegetScience 17.pdf 1.51 MB Aug 13th 2017 at 11:59am
047A Verlage (Br Hagem) 1986 ImmisionPiceaZuwachs BÖB2 10.pdf 386.13 KB Aug 13th 2017 at 11:59am
048 Br Hoffmann 1985 SalzAutobahnrand VerhGFÖ 89.pdf 273.25 KB Aug 13th 2017 at 11:59am
049 Br 1985 SiebenbürgHalophytRumänien SiebenbürgArchiv 53.pdf 1.86 MB Aug 13th 2017 at 11:59am
051 Joshi Engenh Wickern Br 1987 TraceElemSaltmarshAngiosp JPlantPhysiol 5.pdf 153.48 KB Aug 13th 2017 at 12:00pm
052 Br 1982 BlumenAfghanIran ReisiglBlumenparadiese 4.pdf 5.91 MB Aug 13th 2017 at 12:00pm
054 Br Koch 1982 AfghDrog3 Cannabis Afgh J 9.pdf 1.49 MB Aug 13th 2017 at 12:01pm
055 Wickern Br 1983 PbEichenholzAutobahn BerDBotGes 8.pdf 359.83 KB Aug 13th 2017 at 12:01pm
056 Br 1984 VechtaAgrarökosyst WimndhorstOldenburg 30.pdf 1003.61 KB Aug 13th 2017 at 12:01pm
061 BrSchüre 1985 NaHolzStreusalz VerhGFÖ 6.pdf 157.55 KB Aug 13th 2017 at 12:01pm
065 Hager Br 1985 MikroklimDornpolstKreta VerhGFÖ 6.pdf 302.2 KB Aug 13th 2017 at 12:01pm
066 Höner Br 1986 SpeicherstoffeDornpolstKreta Flora 9.pdf 512.01 KB Aug 13th 2017 at 12:01pm
067A Kahle Br 1985 PbCdBuchen VerhGFÖ 3.pdf 1.04 MB Aug 13th 2017 at 12:01pm
067B Kahle Br 1985 Pb Cd Belast Buchenwälder BÖB1 - 3-6.pdf 290.21 KB Aug 13th 2017 at 12:06pm
067B Kahle Br 1985 PbCd Buchenw BÖB1 3-6.pdf 194.93 KB Aug 13th 2017 at 12:07pm
068 Hagemeyer Kahle Br Waisel 1986 Cd in Fagus WaterAirSoilPoll 13.pdf 715.72 KB Aug 13th 2017 at 12:06pm
069 KahleBr 1986 SMBuchenNRW MURLDüss 7.pdf 1.44 MB Aug 13th 2017 at 12:07pm
071 Br 1988 DiplLange-NitratSenne BerNWVBi 21p.pdf 766.77 KB Aug 13th 2017 at 12:07pm
072 Stockey Br 1986 Regenrückhalteb NWV28 383-433.pdf 19.52 MB Aug 13th 2017 at 12:10pm
073 Reimann Br 1988 SaltSecretChenopodium Flora 8.pdf 497.1 KB Aug 13th 2017 at 12:07pm
074 Clüsener Br 1987 MangrovePeru Vegetatio 5.pdf 336.68 KB Aug 13th 2017 at 12:07pm
075 Hagem Br 1986 CdJahrringEichenChronolImmiss AngewBot 14.pdf 776.52 KB Aug 13th 2017 at 12:08pm
078 Verlage Br 1989 DendroklimUntersGrundwasserWerther Dendrochron 14.pdf 664.04 KB Aug 13th 2017 at 12:08pm
080A Letsch 1986 Jahrringuntersuchungen Pinus radiata Peru. in Br Hagem (eds.) BÖB2, 1-14.pdf 982.93 KB Aug 13th 2017 at 1:29pm
080B Verlage L 1986 Immissionsbed Änderungen Zuwachs Fichte. In Br Hagem (eds.) BÖB2, 15-24.pdf 705.44 KB Aug 13th 2017 at 1:29pm
080C Wickern 1986 Jahrringchronologie Blei Eichen Autobahnrand. In Br Hagem (eds.) BÖB2, 25-40.pdf 989.24 KB Aug 13th 2017 at 1:29pm
080D Schüre 1986 Ionenkonzentr Stammholz Bäume auftausalzbelast Standorte. In Br Hagem (eds.) BÖB2, 41-69.pdf 1.51 MB Aug 13th 2017 at 1:30pm
080E Hagem 1986 Verteilung Cadmium Jahrringe Eichen (Quercus robur, Q. petraea) Chronolog Immiss BÖB2, 71-118.pdf 3.33 MB Aug 13th 2017 at 1:30pm
081 Reimann Br 1988 AnatomBlasenhChenopodium Flora 14p.pdf 927.86 KB Aug 13th 2017 at 12:09pm
082 Br Piecz 1986 PoB48 Ecol Geobot .pdf 11.76 MB Aug 13th 2017 at 12:10pm
082 Piecz 1986 PoB48 (1).pdf 6.57 MB Aug 13th 2017 at 12:11pm
083 Waisel Br 1987 radishRootsSalinity PalntSoil 4.pdf 303.99 KB Aug 13th 2017 at 12:10pm
084 Vigo Montserr Cortina KatalonExk IBC 1987.pdf 24.47 MB Aug 13th 2017 at 12:13pm
085 Br Encyc Iranica Bot Stud 1988.pdf 5.32 MB Aug 13th 2017 at 12:13pm
086 Noack Br 1889 Pb Buche Rhizotron VerhGes Ök.pdf 2.53 MB Aug 13th 2017 at 12:13pm
087 Röder Br 1989 Pb Cd Kation Buchen VerhGes Ök.pdf 2.5 MB Aug 13th 2017 at 12:15pm
090A Seidel 1988 Wurzelsyst Chenopod album Salzstress. in Br Watt (eds.) BÖB3, 1-17.pdf 948.72 KB Aug 13th 2017 at 1:30pm
090B Reimann Schierh 1988 Varaibl K-Na-Verhltn Mineralstoffhaush Chenopod album. in Br Watt (eds.) BÖB3, 19-30.pdf 1.07 MB Aug 13th 2017 at 1:30pm
090C Reimann 1988 ökophys Bedeut Blasenhaare Chenopodium. in Br Watt (eds.) BÖB3, 31-41.pdf 869.72 KB Aug 13th 2017 at 1:30pm
090D Wiehe 1988 Ökophys Bedeut Salzdrüsen Limonium. in Br Watt (eds.) BÖB3, 43-55.pdf 1.24 MB Aug 13th 2017 at 1:30pm
090E Brand 1988 Li-Toleranz bei Pfl. in Br Watt (eds.) BÖB3, 57-77.pdf 2 MB Aug 13th 2017 at 1:31pm
090F Wattenb 1988 J-Toleranz v Chenopod album. in Br Watt (eds.) BÖB3, 79-89.pdf 975.65 KB Aug 13th 2017 at 1:30pm
090G Letschert 1988 B-Toleranz Chenopods arid Geb USA. in Br Watt (eds.) BÖB3, 91-110.pdf 1.51 MB Aug 13th 2017 at 1:31pm
091 BrSHU 1989 OLVASennePhytosocLongtermStud SciJO 12.pdf 6.08 MB Aug 13th 2017 at 12:15pm
092 Br Kahle 1991 PoB 52 Ecol Geobot.pdf 11.98 MB Aug 13th 2017 at 12:18pm
093 Günther Sonneb Sonneb Br 1989 SM Al Pilze Bi NWV 30 183-253.pdf 25.52 MB Aug 13th 2017 at 12:19pm
094 BrFreitasReimann 1990 SamplingAtriplexBladderMethods PlantCellEnvir 3.pdf 1.14 MB Aug 13th 2017 at 12:19pm
095 Br Brand Kah Noa Röd 1988 ZwischBer NRW Luftverunr Waldsterb SMBuchen (1).pdf 8.66 MB Aug 13th 2017 at 12:20pm
095 Br Brand Kah Noa Röd 1988 ZwischBer NRW Luftverunr Waldsterb SMBuchen.pdf 15.51 MB Aug 13th 2017 at 12:21pm
096 Br 1991 Growth Stress Heavy Metals -WAI-Roots1 (1).pdf 8.05 MB Aug 13th 2017 at 12:24pm
096 Br 1991 Growth Stress Heavy Metals -WAI-Roots1.pdf 12.91 MB Aug 13th 2017 at 12:24pm
097 Hillebrand Br 1989 Sprungbachtal NWV 30 255-290.pdf 17.63 MB Aug 13th 2017 at 12:26pm
098 Br 1990 SalinityToleranceHalophTypes GeneticAspects-PlantSoil 9.pdf 8.32 MB Aug 13th 2017 at 12:26pm
099 Br 1989 Plants pollutants devel devel countries Izmir 389-409.pdf 8.97 MB Aug 13th 2017 at 12:27pm
101 Stockey Br 1988 Bachveget Geomorph NWV29 399-424.pdf 10.2 MB Aug 13th 2017 at 12:27pm
102 Kah Br 1989 Single combin effects Pb Cd Fagus Interlaken442-444.pdf 395.68 KB Aug 13th 2017 at 12:27pm
103 Bertels Rüther Kah Br 1989 Wurzel Buche Cd Pb GfÖ 367-371.pdf 2.53 MB Aug 13th 2017 at 12:28pm
104 SanchezP Hager Br 1991 trop Regenw Quita Espuela DomRep 28-34.pdf 10.15 MB Aug 13th 2017 at 12:29pm
105 Ahrendt Kahle Br 1989 Cd Transpir Beech Birmensd 381-383.pdf 2.27 MB Aug 13th 2017 at 12:29pm
106 Kah Br 1991 Krit Konz Pb Cd Fagus Neuherberg 446-451.pdf 536.96 KB Aug 13th 2017 at 12:29pm
108 Queiro Valenta Steg Br 1990 HeavyMetalOakWoodTaunusValdivia Trees 7.pdf 756.44 KB Aug 13th 2017 at 12:29pm
109 Queiro Valenta Steg Br 1989 Accum Heavy Met Oak Chile.pdf 7.33 MB Aug 13th 2017 at 12:30pm
110B Hagem Kamr Schäf Schlagint Verlage Br 1989 Saison Schwank Elementgeh Histol Buche NRW. BÖB5, 74-86.pdf 1.41 MB Aug 13th 2017 at 12:29pm
110C Hagem Kamr Schäf Schlagi Verlage Br 1989 Saison Schwank Elemgeh Histol Kambium Buche AFZ 769-771.pdf 6.13 MB Aug 13th 2017 at 12:30pm
110E Kah Bert Nosa Röd Rüth Br 1989 Toxiz Pb Cd Buchenjungwuchs. BÖB5, 99-126.pdf 3 MB Aug 13th 2017 at 12:31pm
110F Kah Bertels Noack Röd Rüt Br 1989 Bp Cd Wachst Mineralst Buche AFZ 783-788.pdf 7.33 MB Aug 13th 2017 at 12:31pm
111 Greszta Br Grusz Kah 1989 saur Niedersch Buche BÖB 5 222-235.pdf 922.53 KB Aug 13th 2017 at 12:31pm
115 Stockey Br 1989 Bedeut Grundwasser Ausaat innerstädt Feuchtstand GfÖ18 279-283.pdf 343.93 KB Aug 13th 2017 at 12:31pm
116 WieheBr 1990 OntogenSalzdrüsLimonium BotanActa 4.pdf 1.2 MB Aug 13th 2017 at 12:31pm
117 Br 1989 BielefBaumlisteArboretum BerNWVBi 31.pdf 1.32 MB Aug 13th 2017 at 12:31pm
120 BrJankowskiNierschlBeck-Gieb 1990 OLNatursport DTBBroschüre 14.pdf 17.23 MB Aug 13th 2017 at 12:33pm
121A Schlagint Hagem Br 1989 Saison Kambiumaktiv Histol GfÖ19-1 Osnabr 238-239.pdf 87.85 KB Aug 13th 2017 at 12:31pm
121B Schlagint Hagem Br 1990 Saison Kambiumaktiv Histol GfÖ19-2 Osnabr 76-81.pdf 440.91 KB Aug 13th 2017 at 12:31pm
122A Stockey Br 1989 Phytosoc Seedings rivulets GfÖ 19-1 Osnabr 243.pdf 136.51 KB Aug 13th 2017 at 12:31pm
122B Stockey Br 1990 Phytosoc Seedings rivulets GfÖ 19-2 Osnabr 398-402.pdf 307.63 KB Aug 13th 2017 at 12:32pm
123A Buschm Kahle Br 1989 Cd Mineralst Buche BfÖ19-1 Osnabr 266-267.pdf 185.92 KB Aug 13th 2017 at 12:32pm
123B Buschm Kah Br 1991 Cd Mineral Fagus GfÖ19-3 Osnabr 209-213.pdf 365.57 KB Aug 13th 2017 at 1:04pm
124 Schäf Hagem Br 1989 Saison Rad Verteil Cd Pb Fagus GfÖ19-1 Osnabr 284-285.pdf 66.44 KB Aug 13th 2017 at 12:33pm
125A Hücker Kahle Br 1989 Stammfuss Buche Naturverjüng GfÖ19-1 Osnabr 271-272.pdf 245.99 KB Aug 13th 2017 at 12:33pm
125B Hücker Kah Br 1991 Stammfuß Naturverjüng GfÖ 19-3 Osnabr 219-222.pdf 238.52 KB Aug 13th 2017 at 12:33pm
125B Hücker Kahle Br 1991 Stammfuss Buche Naturverjüng GfÖ19-3 Osnabr 219-222.pdf 289.67 KB Aug 13th 2017 at 12:33pm
126 Pepplinkhuiz Br 1989 PflSoz Sennberg Teuto GfÖ 19-1 Osnabr 280-281 .pdf 188.27 KB Aug 13th 2017 at 12:33pm
126B Oy Kah Br 1991 Naturverjüng Stammablauf Buchen GfÖ19-3 Osnabr 215-218.pdf 179.51 KB Aug 13th 2017 at 12:33pm
127 Stock Br 1991 Standortgerecht Saatgutm Fließgewäss RasenTurf 22 58-63.pdf 900.23 KB Aug 13th 2017 at 12:33pm
128 Br Hagem Hepp Lohrm 1990 SM Kambium Buche Fichte NRW MURL 18.pdf 1.06 MB Aug 13th 2017 at 12:33pm
130 Kahl Br 1990 SM Zeitbombe Waldböden Forsch UniBi 21-26.pdf 7.79 MB Aug 13th 2017 at 12:34pm
131 Heppel Hagem Br 1991 Cd Boden Jahrring Fichte gfö 973-975.pdf 2.05 MB Aug 13th 2017 at 12:34pm
132B Fleisch Nolte Untries Stock Br 1992 Veget Bachauen Ravensb Hügelland II NWV 33 47-90.pdf 2.39 MB Aug 13th 2017 at 12:34pm
133 TodtA Sto Br 1991 Exp Grundwasser Bodenparameter GfÖ 20 369-373.pdf 280.13 KB Aug 13th 2017 at 12:34pm
134 Lührm Hagem Br 1990 Dendroöko Fichte NRW GfÖ 20 112 ABSTR.pdf 63.79 KB Aug 13th 2017 at 12:34pm
135 Lülfsm Perk Hagem Br 1990 Radiale Vert Pb Cd Ca Mg Holz Buchen Teuto GfÖ 20 112-113 ABSTR.pdf 63.65 KB Aug 13th 2017 at 12:34pm
136 Sahrhage Hagem Br 1991 Pb Stammholz Fichte Stolb Egge GfÖ20 977-979.pdf 163.57 KB Aug 13th 2017 at 12:34pm
138A2 Br 1995 Biom Handbuch Ökologie 68-69.pdf 214.33 KB Aug 13th 2017 at 12:34pm
138B2 Br 1995 Biosphäre Handbuch Ökologie 73-79.pdf 696.71 KB Aug 13th 2017 at 12:34pm
139 KahleBr 1992 Pb+CdZeitbombeWaldböden BiolinunsZeit 7.pdf 1.51 MB Aug 13th 2017 at 12:35pm
140 Kah Br 1991 Krit Konz Pb Cd Buche Proc Neuherberg 446-450.pdf 544.28 KB Aug 13th 2017 at 12:35pm
141 AKWN 1991 FremdländerAnbauOWL NaturLandschKunde 4.pdf 229.13 KB Aug 13th 2017 at 12:35pm
142 VogelBr 1992 SerpentinfarneBayern BayrBotGes 19.pdf 1.47 MB Aug 13th 2017 at 12:35pm
143 Knospen IMG_20170703_0001.pdf 1.83 MB Aug 13th 2017 at 12:35pm
144 BrKahle 1992 EffectToxicHeavyMetalBeech Vegetatio 11.pdf 746.04 KB Aug 13th 2017 at 12:35pm
144 BrKahle 1992 EffectToxicHeavyMetBeech Vegetatio 11.pdf 942.33 KB Aug 13th 2017 at 12:37pm
145 HagemLülfsmannPerkBr 1991 SeasonalVariatCdPbZnInFagus Vegetatio 9.pdf 690.2 KB Aug 13th 2017 at 12:37pm
146 Reimann Br 1992 Eoots Chenop Regul Na Content ISSR Wen 146-147.pdf 163.21 KB Aug 13th 2017 at 12:37pm
147 Walkenh Hagem Br 1993 Passive Monitor Pollut Trace Metals Bark MARKERT 523-540.pdf 1.37 MB Aug 13th 2017 at 12:37pm
149 ReimannBr 1993 NaChenopodiac PlantCellEnvir 6.pdf 553.65 KB Aug 13th 2017 at 12:37pm
150 AKWN 1992 BodenschutzKalkungNaturschutz NaturLandschKunde 6.pdf 431.6 KB Aug 13th 2017 at 12:37pm
151 FreitasBr 1992 bBadderAtriplexPortuguese Flora 15.pdf 514.09 KB Aug 13th 2017 at 12:37pm
152 ReimannBr 1995 SaltSalsolaKaliTragus NewPhytol 9.pdf 701.54 KB Aug 13th 2017 at 12:38pm
153 FreitasBr 1993 ProgessCutinizAtriplexBladder Flora 4.pdf 419.13 KB Aug 13th 2017 at 12:38pm
154 Br 1992 OLFaunaFloraSwissOekogeoStudyReview SciJO 15.pdf 7.73 MB Aug 13th 2017 at 12:38pm
155 AKWN 1994 Naturnahe Waldbewirtsch Naturschutz.pdf 3.89 MB Aug 13th 2017 at 12:39pm
156 Kah Br Crit Conc Pb Cd Fagus EurSympEcosysFlorenz 659-661.pdf 329.25 KB Aug 13th 2017 at 12:39pm
157 Br 1993 Tropenökol Arb BS RFSR CR GtÖ-TagBonn 175-179.pdf 555.36 KB Aug 13th 2017 at 12:39pm
158 FreitasBr 1993 NitrateinAtriplexBladder PlyntPhysBiochem 6.pdf 408.81 KB Aug 13th 2017 at 12:39pm
159 Br 1993 KonzipGroßschutzgebNPSenne SchrReihLandespfl 13.pdf 2.31 MB Aug 13th 2017 at 12:39pm
161 Br 1992 Salinity stress saltrecretion BÖB6 39-52.pdf 773.08 KB Aug 13th 2017 at 12:39pm
162 Br Mannesm Waisel 1992 What is Stress common phenom Organisn BÖB6 111-114.pdf 267.67 KB Aug 13th 2017 at 12:39pm
166 Br Kah 1992 Pb Cd root growth beech ISRRWien 241-245.pdf 298.85 KB Aug 13th 2017 at 12:39pm
167 Hagem Lohrm Br 1993 AnnualRingsCdZnInFagus WaterAirSoilPoll 11.pdf 601.21 KB Aug 13th 2017 at 12:39pm
167 Hagem Lohrm Br 1993 Annual xylem rings shoot growth Beech Cd Zn WaterAirSoilPoll 69 351-361.pdf 689.58 KB Aug 13th 2017 at 12:39pm
168 Hagem Schäfer Br 1994 Season Varia Ni xylem beech SciTotEnvir 145 111-118.pdf 815.42 KB Aug 13th 2017 at 12:39pm
169 AgakhBr 1994 Umweltsituat ehemal USSR NR 47 99-106.pdf 9.62 MB Aug 13th 2017 at 12:40pm
171 AgakhBr 1995 Origin Evolut CAsia mountain Flora ES113-18p.pdf 793.93 KB Aug 13th 2017 at 12:40pm
172 Br Dickm Houere Whitf 1994 Divers Deserts Asian Des SeelyBuch40-47,50-54.pdf 18 MB Aug 13th 2017 at 12:42pm
173 Br 1997 Ecotoxic trace metals Forest ecosys. Biogeochen AdrianoChenYangIsk 357-379.pdf 1.1 MB Aug 13th 2017 at 12:42pm
173A Br 1993 Ecotox trace Metals forest ecosys TaiwanConfAbstr p.15.pdf 54.78 KB Aug 13th 2017 at 12:42pm
174 Nolte Fleisch Stock Br 1993 Veget LandschÖk Bach Ravenb Hügell III Johannisbach NWV 34 217-261.pdf 2.41 MB Aug 13th 2017 at 12:42pm
175 Br 1995 Antwort Bio Öko Tourismus inNahrstPiwVod 15 151-160.pdf 525.11 KB Aug 13th 2017 at 12:42pm
176 Hagem Br 1996 Growth trace elemnt stress.PlantRootsHiddenHalf 415-433.pdf 1.97 MB Aug 13th 2017 at 12:42pm
178 WattenbergBr 1995 TreeSpecDiversTilaranCR Ecotropica 10.pdf 151.42 KB Aug 13th 2017 at 12:42pm
179 BrackhHagemBrGreszta 1996 RadialDistribCdZnInPinus WaterAirSoilPoll 12.pdf 618.61 KB Aug 13th 2017 at 12:42pm
180B Br 1995 CanopyStructureEcosystFunctDiversTropPrimForestCR BÖB8 16.pdf 789.56 KB Aug 13th 2017 at 12:42pm
181 Br 1996 RootGrowthNonHaloUnderSalin ActaPhytogeogr 4.pdf 371.78 KB Aug 13th 2017 at 12:42pm
182 Br 1996 GrowthTreeRootsPbStress ActaPhytogeogr 5.pdf 307.17 KB Aug 13th 2017 at 12:42pm
183 VesteBr 1996 RootRespirPancratium ActaPhytogeogr 3.pdf 832.75 KB Aug 13th 2017 at 12:43pm
184 VesteBr 1996 RootGrowthWaterDesertSand ActaPhytogeogr 6.pdf 1.38 MB Aug 13th 2017 at 12:43pm
185 Veste Br 1995 Water relat mineral mistletoe Loranthus halo nonhalo hosts KhanUngar 166-169.pdf 1.85 MB Aug 13th 2017 at 12:43pm
186 Veste Br 1995 Xerohaloph sandecosys KhanUngar 161-165.pdf 330.31 KB Aug 13th 2017 at 12:43pm
187 Br 1995 HowHaloph overc salinity KhanUngar 199-213.pdf 1.04 MB Aug 13th 2017 at 12:43pm
188 FreitasBr 1994 BladderSeedlingsAtriplex Mesogee 8.pdf 645.9 KB Aug 13th 2017 at 12:43pm
189 VesteBr 1996 GaswechselWasserThymelaeaNegev VerhGesÖkol 7.pdf 2.23 MB Aug 13th 2017 at 12:43pm
191 BittnerBr 1994 PhänoÖkoBaumfarneCR PostGTÖ 1.pdf 89.03 KB Aug 13th 2017 at 12:43pm
192 BittnerBr 1994 PhenolEcolTreeFernsCR PostKnoxville 1.pdf 953.47 KB Aug 13th 2017 at 12:43pm
193 BittnerBr 1995 GrowthAgeTreeFernsCR AmerFernJ 6.pdf 238.21 KB Aug 13th 2017 at 12:43pm
194 Br 1997 PopulStudTreeSpecCR TropicEcol 14.pdf 828.66 KB Aug 13th 2017 at 12:43pm
195 HagemHeppelBr 1994 CdZnAnnualRingsInPicea Trees 5.pdf 521.8 KB Aug 13th 2017 at 12:43pm
196 NabaisFreitasHagemBr 1996 RadialDistrNiInQiPortug PlantSoil 5.pdf 356.96 KB Aug 13th 2017 at 12:44pm
197 WeberBr 1994 MineralstBaumfarneCR PostGTÖ 1.pdf 37.76 KB Aug 13th 2017 at 12:44pm
198 BuljovcicBr 1994 NährstGehBaumartenCR PostGTÖ 1.pdf 54.08 KB Aug 13th 2017 at 12:44pm
199 SanchezBr 1994 AcrostichumHalophyt PostGTÖ 1.pdf 47.22 KB Aug 13th 2017 at 12:44pm
200 AKWN LeichtfertVerwendPNV NaturLandschaftsk 7.pdf 456.17 KB Aug 13th 2017 at 12:44pm
203 MatskoBrEliaschAgakhan 199 RadioökologSituatTschernobyl NaturwRdsch 6+2.pdf 997.08 KB Aug 13th 2017 at 12:44pm
205 BrBrR 1996 MappiongGeomorphTrailCR MemoriaInvestSanRamon 6.pdf 822.37 KB Aug 13th 2017 at 12:44pm
206 BirkelbachBrOrtiz 1996 ElementSoilLeavesCR MemoriaInvestSanRamon 7.pdf 628.06 KB Aug 13th 2017 at 12:44pm
207 BuljovcvicBr 1997 MineralNutrLeavesTreeSpecCR BÖB11 8.pdf 383.65 KB Aug 13th 2017 at 12:44pm
208 Br 1998 HaloGypsoVegetEbroBasin BoletSocEntomAragon 4.pdf 349.6 KB Aug 13th 2017 at 12:44pm
209 RömichBrOrtiz 1996 MorfolFenolIngaPterocarpusCR MemoriaInvestSanRamon 11.pdf 683.37 KB Aug 13th 2017 at 12:44pm
210 SchroersOrtizBr 1996 ElaeagiaCR MemoriaInvestSanRamon 3.pdf 261.87 KB Aug 13th 2017 at 12:44pm
211 SprengerBrOrtiz 1996 EcolDemogrElaeagiaCR MemoriaInvestSanRamon 8.pdf 569.04 KB Aug 13th 2017 at 12:44pm
212 WattenbergBrOrtiz 1996 DiversArbolBosquCR MemoriaInvestSanRamon 9.pdf 348.32 KB Aug 13th 2017 at 12:44pm
213 WeberHerreraBrOrtiz 1996 NutrientHojasHeelchosArbor MemoriaInvestSanRamon 9.pdf 586.83 KB Aug 13th 2017 at 12:44pm
215 Br 1996 ÖkolSystErdeZB StPetersbRUSS 3.pdf 343.32 KB Aug 13th 2017 at 12:44pm
216 Br 1998 TropÖkosyst GtÖHH BFHMitteil 26.pdf 1.96 MB Aug 13th 2017 at 12:44pm
217 JankowskiPoschSagererBrVeste 1995 AutomatDetektWurzelMinirhizotron SagerPOKuMustererkennung 10.pdf 1.33 MB Aug 13th 2017 at 12:44pm
218 JankowskiPoschSagererBrVeste 1995 MiniRhizoImageAnalys PostSymposHalmstad 1.pdf 39.28 KB Aug 13th 2017 at 12:44pm
219 EinavBrBr 199 EcophysintertidAlgaeMedit MarineEcol 10.pdf 738.79 KB Aug 13th 2017 at 12:45pm
221 AKWN 1996 ZuvielStickstoffImWald NaturLandschKunde 2.pdf 128.14 KB Aug 13th 2017 at 12:45pm
222 HerreraBrVeste 1996 NaClGaswechselKüstenhalophyten PostBotTagung 2Halo2.pdf 113.15 KB Aug 13th 2017 at 12:45pm
223 HerreraBrVeste 1996 NaClWachstIonenSukkulBatis PostGfÖ 2.pdf 109.71 KB Aug 13th 2017 at 12:45pm
224 Br 1997 SoilConditRBAMBCR BÖB11 14.pdf 824.9 KB Aug 13th 2017 at 12:45pm
225A Wattenb 1997 Popul ecology Iriartea Elaeagia Calatola Costa Rica. in Wattenb Br (eds.) Contrib Trop Ecol Costa Rica BÖB vol.11, 47-59.pdf 906.07 KB Aug 13th 2017 at 12:45pm
225B Brenes 1997 Aspectos autecología Elaeagia espec nativa forestal. in Wattenb Br (eds.) Contrib Trop Ecol Costa Rica BÖB vol.11, 75-76.pdf 184.58 KB Aug 13th 2017 at 12:45pm
225C Napp-ZinnA 1997 Hymenophyllac RBAB CR. in Wattenb Br (eds.) Contrib Trop Ecol Costa Rica BÖB vol.11, 89-99.pdf 607.76 KB Aug 13th 2017 at 12:45pm
226A Moser Br 1997 MineralSubstanceGapsForestsCR BÖB11 14.pdf 1.01 MB Aug 13th 2017 at 12:45pm
226B Dombeck (Br) 1997 DstribAltudinalHlechosArborescCr BÖB11 9.pdf 437.86 KB Aug 13th 2017 at 12:45pm
227 Schroers Br 1997 PopulStudElaeagiaCR BÖB11 13.pdf 775.95 KB Aug 13th 2017 at 12:45pm
228 Sprenger Br 1997 EcolStudRainforestCR BOB11 12.pdf 570.25 KB Aug 13th 2017 at 12:45pm
231 Br Agakh Wuch 998 AralseeGeoökolProbl NaturwRdschau 9+Lit.pdf 2.34 MB Aug 13th 2017 at 12:45pm
232 Br 2002 SalinityHaloSaltaffEcsyst LÄUCHLILÜKluwer 24.pdf 1.32 MB Aug 13th 2017 at 12:46pm
233 HomBrDalitzLeyersOrtiz 2002 DemograpPalmCR 10242Hom Ecotropica 9.pdf 527.82 KB Aug 13th 2017 at 12:46pm
235 Rosenwald Frahm Br Clomazone.pdf 1.57 MB Aug 13th 2017 at 12:46pm
236 AKWN 1998 HolzernteNaturschutz NaturLandschKde 6.pdf 361.46 KB Aug 13th 2017 at 12:46pm
237 Br 2000WannPflHalophyt Schimper1StgtHoh 18.pdf 1.51 MB Aug 13th 2017 at 12:46pm
238 Br 2002 FloraVegetÖkolAlpin-NivalHindukusch HohSchimp2 ABSTR 1.jpg 1.05 MB Aug 13th 2017 at 12:46pm
239 Br (Ankew +Collbey) 1998 BÖB13 199-216 IMG_20170704_0001.pdf 18.12 MB Aug 13th 2017 at 12:48pm
241 Br 1999 WissErforschAfgh MediothekAfghForsch 15.pdf 621.16 KB Aug 13th 2017 at 12:48pm
242 Br 1999 WichtigSystemiolÖkol CourSenckenberg 6.pdf 555.45 KB Aug 13th 2017 at 12:48pm
243 VesteBr 2000 IonenWasserAnabasisNegev Schimper1StgtHoh 5.pdf 1.41 MB Aug 13th 2017 at 12:48pm
244 TodtBrVeste 2000 LoranthusHaloNonHalo Schimper1StgtHoh 6.pdf 257.14 KB Aug 13th 2017 at 12:48pm
245 DalitzDalBr 2000 PotassCyclingCR Schimper1StgtHoh 12.pdf 620.21 KB Aug 13th 2017 at 12:48pm
246 B Br 1999 Deserts of the world. Ecol Probl Sustain Landuse, Conf. Königswinter, BÖB 15 12, ABSTRACT.pdf 118.24 KB Aug 13th 2017 at 12:48pm
246 C Wuch Br 1999 Veget Dynamics dry seafloor Aralsea. Ecol Probl Sustain Landuse, Conf. Königswinter, BÖB 15, 41, ABSTRACT.pdf 136.63 KB Aug 13th 2017 at 12:48pm
246 D Br 1999 Halopygtes dry seafloor Aralsea. Ecol Probl Sustain Landuse, Conf. Königswinter, BÖB 15, 51, ABSTRACTIMG_20170805_0002.pdf 98.55 KB Aug 13th 2017 at 12:48pm
246 E Veste Br Littm KJalek Yair 1999 Ecol Bio soil crusts desert sand dunes N Negev. Ecol Probl Sustain Landuse, Conf. Königswinter, BÖB 15, 72, ABSTRACT.pdf 73.04 KB Aug 13th 2017 at 12:48pm
246 F Wuch Aleschkskii Br 1999 Coloniz plants dry seafloor Aralsea. Ecol Probl Sustain Landuse, Conf. Königswinter, BÖB 15, 74, ABSTRACT.pdf 75.88 KB Aug 13th 2017 at 12:48pm
246B Br 1999 Deserts World. in Conf Ecol Probl sustain landuse deserts Königswinter. BÖB 15, 12 LectAbstract.pdf 113.5 KB Aug 13th 2017 at 12:48pm
246C Wuch Br 1999 Veget dynam AralSea. in Conf Ecol Probl sustain landuse deserts Königswinter. BÖB 15, 41 LectAbstract.pdf 137.31 KB Aug 13th 2017 at 12:48pm
246D Br Wuch Scheff 1999 Haloph seafloor AralSea. in Conf Ecol Probl sustain landuse deserts Königswinter. BÖB 15, 51 PosterAbstract.pdf 100.42 KB Aug 13th 2017 at 12:48pm
246E Veste Br Littm Kalek Yair 1999 Biol soil Crusts N Negev. in Conf Ecol Probl sustain landuse deserts Königswinter. BÖB 15, 72 PosterAbstract.pdf 72.63 KB Aug 13th 2017 at 12:48pm
246F Wuch Aleschk Br 1999 Coloiz dry seafloor Small AralSea. in Conf Ecol Probl sustain landuse deserts Königswinter. BÖB 15, 74 PosterAbstract.pdf 75.34 KB Aug 13th 2017 at 12:48pm
247A BrAgakhWuch 1998 AralskogoKrisisa AschchabadRUSS 7.pdf 509.99 KB Aug 13th 2017 at 12:48pm
247B AgakhBrWuch 2000 PerspectRegularMalogoArala GeoKongrStPeters RUSS 3.pdf 248.1 KB Aug 13th 2017 at 12:48pm
247C BMBFKutscherEtAl 2000 EnvironmResearchAralsee BMBF 20.pdf 20.33 MB Aug 13th 2017 at 12:50pm
251 VesteBr 2000 NergevPflÖkolÖkosystBetracht GeogrRdsch 6.pdf 2.29 MB Aug 13th 2017 at 12:50pm
251A Br Wuch Agakhan 1998 Problems of Desert developm Ashkhabad russ 6, 7-14.pdf 8.03 MB Aug 13th 2017 at 12:51pm
252 VesteLittmannBrYair 2001 BiolCrustSandNegev SustainLanduseDesert 11.pdf 244.44 KB Aug 13th 2017 at 12:51pm
252 VesteLittmannBrYair 2001 BiolCrustSandNegev SustainLanduseDesert 11.pdf 96.07 KB Aug 13th 2017 at 12:51pm
252 VesteLittmannBrYair 2001 BiolCrustSandNegev SustainLanduseDeserts 11.pdf 228.18 KB Aug 13th 2017 at 12:51pm
253 BrVesteWuch 2001 DesertsLanduseDesertif SustainLanduseDesert 11.pdf 116.53 KB Aug 13th 2017 at 12:51pm
254A WuchBrDimeyeva 2001 FloraDrySeafloorAral SustainLanduseDesert 13.pdf 50.27 KB Aug 13th 2017 at 12:51pm
254B WuchBrDimeyGroenevWissel 2001 FloristDiversAralSea VerhdGesfÖ 1.pdf 39.07 KB Aug 13th 2017 at 12:51pm
254C GroenevWuchBrWisselJeltsch 2001 DiversPatternStressGradAral VerhGesfÖko 1.pdf 54.95 KB Aug 13th 2017 at 12:51pm
255 MeirmanDimeyDzhamantWuchBr 2001 SeedingExperimPhytomelio SustainLanduseDes 5.pdf 24.72 KB Aug 13th 2017 at 12:51pm
256 BrSchefferWuch 2001 HalophytAral SustainLanduseDesert 8.pdf 28.81 KB Aug 13th 2017 at 12:51pm
257 KauschKlimmWuchBrLaOuSwVeste 2000 HintergrundstudDesertifZentrAs GTZ 40.pdf 459.03 KB Aug 13th 2017 at 12:51pm
258 VesteLittmannFriedrichBr 2001 MicroclimBoundaryCrustNegev Flora 12.pdf 3.78 MB Aug 13th 2017 at 12:51pm
259 BrBrHomScheffer 2005 MineralDeficPineSEcuador Ecotropica 7.pdf 272.45 KB Aug 13th 2017 at 12:52pm
260 Br 2000 BiodiversWüstenHalbwüst BerTüxenGes 15.pdf 962.09 KB Aug 13th 2017 at 12:52pm
261 Hagem Br 2001 TraceElement Stress Roots Waiseletal PlatRoots HiddenHlaf3 - 763-785 .pdf 3.13 MB Aug 13th 2017 at 12:52pm
262 Br 2002 SaltdesertIranAfgh SabkhaEcostKluwer 13.pdf 1.21 MB Aug 13th 2017 at 12:52pm
263 BrVesteWuch 2000 WüstenÖkolWissengegenDesertif ForschungUniBi 5.pdf 1.23 MB Aug 13th 2017 at 12:52pm
264 Veste Br 2000 German Compet Network Desert+Net 22+18pp.pdf 27.33 MB Aug 13th 2017 at 12:54pm
265 WuchBr 2001 VegetDynamicAralSea SustainLanduseDesert 16.pdf 333.75 KB Aug 13th 2017 at 12:54pm
266 BrWuchAgakhGeldev 2001 AralSeaCrisisReg SustainLanduseDesert 11.pdf 181.42 KB Aug 13th 2017 at 12:54pm
267 KiffeVogelsangBr 2000 CarexAcutaxAcutiform FlorRundbr 8.pdf 418.24 KB Aug 13th 2017 at 12:54pm
268 AgakhBr 2002 PlantDiversHighMountain ParthenonBocaRaton(Rigi) 11.pdf 708.06 KB Aug 13th 2017 at 12:55pm
269A Br Br 2001 Primary success saltflats sand dunes lava flows Kamchatka Abstract po.12.pdf 563.92 KB Aug 13th 2017 at 12:55pm
269B Br 2002 PrimärsukzessSandVulkSaklz BerTüxenGes 12.pdf 757.93 KB Aug 13th 2017 at 12:55pm
271 Abb 1-4 Aralsee Aleppo Konfer.pdf 2.11 MB Aug 13th 2017 at 12:55pm
271 Br 2003 RehabilAralSeaKaz UNESCO-MAB-Aleppo 11.pdf 42.19 KB Aug 13th 2017 at 12:55pm
273 Hom Dalitz Br 2002 Waldstrukt Baumdivers SEcuador BerTüxenGes 10.pdf 2.09 MB Aug 13th 2017 at 12:55pm
274 Br Wuch 2001 Aralsee Krise Arabisch Environm Developm Beirut 5.pdf 1.44 MB Aug 13th 2017 at 12:55pm
276 HomBr 2004 GrowthTreeEcuador Schimper2StgtHoh 5.pdf 1016.47 KB Aug 13th 2017 at 12:55pm
277 ErzVesteAnlaufBrPosch 2003 AutomatAnalysMinirhizoImagesTomatoRoots ABSTRACTUppsala 1.pdf 108.48 KB Aug 13th 2017 at 12:55pm
278 BrHaverkSchefferVeste 2003 ÖkolOptimBewässSalzwasser BÖB16 108.pdf 17.32 MB Aug 13th 2017 at 12:57pm
280B 2Br 2003 ZiF Tagung Pamir .pdf 4.81 MB Aug 13th 2017 at 12:57pm
281 Br 2003 NaturLandnutzPamir BÖB18 104.pdf 477.31 KB Aug 13th 2017 at 12:57pm
282 Br 2004 FloraVegAlpinNivalHiku Schimper2StgtHoh 21.pdf 3.69 MB Aug 13th 2017 at 12:57pm
283 AgakhBr 2004 Pamir BurgaGebErdeUlmer 7.pdf 1.46 MB Aug 13th 2017 at 12:58pm
284 BrWuch 2006 VegetPamirDesertif LaPazpaperCRC 13.pdf 829.5 KB Aug 13th 2017 at 12:58pm
285 Br 2005 NaturwissNeugierde40Jahre Festschrift65Geb 37.pdf 1.38 MB Aug 13th 2017 at 12:58pm
286 HomDalitzBr 2005 TreeSpecComposCR Festschrift65Geb 12.pdf 587.68 KB Aug 13th 2017 at 12:58pm
287 WuchBr 2003 PsammophSuccessAralSea RachkovkayaRussEngl 2x8.pdf 2.02 MB Aug 13th 2017 at 12:58pm
288 DesertNet AkhtarSch Br etal c2005 36pp.pdf 30.97 MB Aug 13th 2017 at 1:01pm
289 Wuch Br Kleinn 2004 Tugai shrubs WPamir GfÖ Giessen.pdf 756.53 KB Aug 13th 2017 at 1:01pm
290 AhmadovBrBr 2006 GrazingProductivSoilErosTajikMt LaPazPaper CRCTaylorFranc 9.pdf 155.98 KB Aug 13th 2017 at 1:01pm
292 BrWuch 2005 AralseeZukunft LOZANWarnsignalKlima 5.pdf 1.16 MB Aug 13th 2017 at 1:01pm
293 BrKüppers 2005 WassersparNutzpflaridGeb LozanWarnsignalKlima 5.pdf 987.01 KB Aug 13th 2017 at 1:01pm
294 Br 2007 Nine zonobiomes globe. GtÖ Bonn, PosterAbstract p.90.pdf 219.37 KB Aug 13th 2017 at 1:01pm
295 B Br 2002 Flora Veg Ökol alpin-nivalen Stufe Hindukusch Afgh. 2. Schimper Hohenheim p9 VortragsABSTRACT.pdf 88.83 KB Aug 13th 2017 at 1:01pm
295 C Wolter Dal Br 2002 Räuml Variab K-Fluss Kronentraufe Costa Rica. 2. Schimper Hohenheim p42 PosterABSTRACT.pdf 99.34 KB Aug 13th 2017 at 1:01pm
295 D Hom Br 2002 Baumwachst Phänol S Ecuador. 2. Schimper Hohenheim p43 PosterABSTRACT.pdf 96.69 KB Aug 13th 2017 at 1:01pm
295 E Hom Br 2002 Waldstruktur Baumdivers S Ecuador. 2. Schimper Hohenheim p44 PosterABSTRACT..pdf 88.54 KB Aug 13th 2017 at 1:01pm
295 F Dal Wolter Dal Hom Br 2002 Visual Plants database solution determin trop plants. 2. Schimper Hohenheim p45 PosterABSTRACT..pdf 77.16 KB Aug 13th 2017 at 1:01pm
295 G Oesker Dal Br 2002 Räuml Hterogen Kronentraufe Kronenstrukjtur trop Bergregenwald S Ecuador. 2. Schimper Hohenheim p48 PosterABSTRACT..pdf 99.67 KB Aug 13th 2017 at 1:01pm
297 AKWN 2003 GroßePflFresserWald LÖBFMitteil 3.pdf 1.21 MB Aug 13th 2017 at 1:01pm
297 AKWN 2003 GroßePflFresserWald LÖBFMitteil 3.pdf 1.07 MB Aug 13th 2017 at 1:01pm
298 AKWN 2005 LichtliebArtenNaturnahWaldbau AFZDerWald 53.pdf 608.68 KB Aug 13th 2017 at 1:01pm
299 BrWuch 2006 CombattDesertifAral GAOChinaSympos 13.pdf 1.33 MB Aug 13th 2017 at 1:01pm
300 HomDalitzBr 2004 VisualPlantsDatabase Schimper2StgtHoh 4.pdf 938.13 KB Aug 13th 2017 at 1:01pm
301 Br 2005 MöglEinflußKlimawandelNWDeutschl LÖBFMitt 6.pdf 522.11 KB Aug 13th 2017 at 1:02pm
302 Oesker Dal Br 2004 Räuml Heterogen trop Bergwald.pdf 1.7 MB Aug 13th 2017 at 1:02pm
303 VesteEggertBrLittmann 2005 VegetGeoÖkolGradientNegev UFZBericht 17.pdf 1.17 MB Aug 13th 2017 at 1:02pm
304 Wolter Dal Br 2004 Räuml Variab K-Fluss Kronentraufe CR.SchimperSymp 383-384.pdf 877.08 KB Aug 13th 2017 at 1:02pm
305 WuchBrKaverinZhamantOgar 2005 PhytomelHaloxAral Festschrift65Geb 19.pdf 668.61 KB Aug 13th 2017 at 1:02pm
306 ErzVesteAnlaufBrPosch 2005 ContourBasedTechMinirhizoImages ApplBotFoodQual 6.pdf 656.61 KB Aug 13th 2017 at 1:02pm
307 MüllerVesteWuchBr 2006 DesertikBekämpf NatwissRundsch 8.pdf 9.33 MB Aug 13th 2017 at 1:03pm
308 WuchVesteHerreraBr 2005 HalophToolsRehab ProceedEcolConstBeijingEnglChin 2x8.pdf 624.14 KB Aug 13th 2017 at 1:03pm
309 VesteLittmRussowBr 2006 EcosystProcVegetPatternNegev GAOChinaSympos 18.pdf 1.29 MB Aug 13th 2017 at 1:03pm
310B WuchWuchBr 2005 LandscapeDynamicsECoastAralSea ABSTRCTGfÖ 1.pdf 173.77 KB Aug 13th 2017 at 1:03pm
311 BrKüppers 2007 WaterSavingPlants LozanBuch2EnoughWaterGEOENGL 5.pdf 3.57 MB Aug 13th 2017 at 1:03pm
312 BrWuch 2007 WhatFutureAralSea LOZANEnoughWaterForAllGEOENGL 5.pdf 970.17 KB Aug 13th 2017 at 1:03pm
313 BendixHomCuevaEmckBrRichterBeck 2006 SeasonalWeatherTreePhenolEcuad IntJBiomet 15.pdf 898.34 KB Aug 13th 2017 at 1:04pm
314 CuevaHomBrBendixEmckRichtBeck 2006 SeasonalEvergreenTropMtForEcuador Ecotropica 17.pdf 635.73 KB Aug 13th 2017 at 1:04pm
315 Gao et al.doc 9.57 MB Aug 13th 2017 at 1:05pm
315 GaoNishioIchizenVesteBr 2007 DesertificRehabilitChina JapanJAridStud 13.pdf 382.78 KB Aug 13th 2017 at 1:04pm
316 Br 2006 DesertBiodiversAreaResource JapanJAridLandStud 14.pdf 7.26 MB Aug 13th 2017 at 1:07pm
317 BrehmHomFiedlerKottkeIlligNöskeWernerBr 2008 MountainForestSEcuadHhotspotBiodivers ES198 9.pdf 779.27 KB Aug 13th 2017 at 1:05pm
318 Hom Br 2008 GapDynamicsTropForestSEcuad ES198 7.pdf 1.69 MB Aug 13th 2017 at 1:05pm
319 Hom Wer Grad Br Ric 2008 ES198 p87ff.jpg 1.07 MB Aug 13th 2017 at 1:05pm
319 Hom Wer Grad Br Ric 2008 PotentVegetFloristSEcuad ES198 14.pdf 3.33 MB Aug 13th 2017 at 1:06pm
321 Liede-S Br 2008 Gen Introduct LiBr Prov Checklists S Ecuador Ecotrop Monogr 4, 5-14.pdf 9.14 MB Aug 13th 2017 at 1:07pm
322 Br 2007 FloraVegetationAfghBADR 40.pdf 3.64 MB Aug 13th 2017 at 1:08pm
323B Br Biodivers in deserts global perspective and Aralkum example. Sino-German Conf Biodiv arid areas Urumqi p.38 VortragsABSTRACT.pdf 115.71 KB Aug 13th 2017 at 1:08pm
323C Veste Littm Br 2006 Climatic Grad Ecosyst Funct Desert Margins Climate Change ABSTRACT Urumqui.jpg 1.4 MB Aug 13th 2017 at 1:09pm
323C Veste Littm Br 2006 Climatic Grad Ecosyst Funct Desert Margins Climate Change p41 ABSTRACTUrumqui.pdf 82.6 KB Aug 13th 2017 at 1:09pm
324 SanchezHerreraHagerVesteBr 2007 HaloVegDomin PostHHBotTag 1.pdf 9.72 KB Aug 13th 2017 at 1:09pm
325 Br 2007 EislaufenUmdruckSportkurs UniBi 14.pdf 42.36 KB Aug 13th 2017 at 1:09pm
327 Br 2008 SuccessionProcessesVegetSeaFloorAralSea. DanielsFSMünster 10.pdf 1.98 MB Aug 13th 2017 at 1:09pm
328 Br 2007 ReviewKapelleMontaneOakCREcolStud185 2.pdf 129.16 KB Aug 13th 2017 at 1:09pm
329 VesteGaoSunBr 2006 GreenGreatWallChina GeogrRundsch 7.pdf 6.45 MB Aug 13th 2017 at 1:10pm
330 BrWuch 2006 LostAralSea AbstractVerhGFÖ 1.pdf 28.42 KB Aug 13th 2017 at 1:09pm
331 VesteLittmBrYair 2006 ClimatGradDesertMargin AbstratVerhGFÖ 1.pdf 31.67 KB Aug 13th 2017 at 1:09pm
332 NorooziAkhaniBr 2007 BiodiversityPhytogeogrAlpineFloraIran. BiodivConserv 29.pdf 1004.16 KB Aug 13th 2017 at 1:10pm
333 BrVesteYair 2008 GeneralIntrodAimsBookNizzanaNegev ES200 7.pdf 261.65 KB Aug 13th 2017 at 1:10pm
334 YairVesteBr 2008 Geoecol Nizzana Negev ES200 8.pdf 1.23 MB Aug 13th 2017 at 1:10pm
335 VesteHeusingvBerkowBrLittmJacobs 2008 DeFormatBiolSoilCrusts ES200 13.pdf 455.81 KB Aug 13th 2017 at 1:10pm
336 RussowVesteBrLittmBöhme 2008 NitrogenInputPathwaysBiolFixat ES200 17.pdf 399 KB Aug 13th 2017 at 1:10pm
337 VesteSartoriusBr 2008 IonRelatPlantSoil ES200 13.pdf 808.2 KB Aug 13th 2017 at 1:10pm
338 VesteSommerBrLittm 2008 StandBiomassDistribModelling ES200 7.pdf 636.67 KB Aug 13th 2017 at 1:11pm
339 YairVesteAlmogBr 2008 SensitivSandyAreaClimateChangeRainfallGradDesertFringe ES200 16.pdf 950.64 KB Aug 13th 2017 at 1:11pm
340 BrVesteYair 2008 GeneralConclusionsSandDesertRehabilConservat ES200 19.pdf 19.82 MB Aug 13th 2017 at 1:13pm
341 BrWuch 2011 GeneralIntroductAralkumManMadeDesert ES218 9.pdf 202.96 KB Aug 13th 2017 at 1:11pm
342 BrGeldeyeva 2011 DynamicsAralSeaGeologHistorTimes ES218 22.pdf 742.43 KB Aug 13th 2017 at 1:11pm
343 GeldeyevaBrGeldyev 2011 GeographGeomorphLitholCharact ES218 12.pdf 349.21 KB Aug 13th 2017 at 1:11pm
344 BrWuch 2011 ClimaticConditAralkum ES218 10.pdf 1.53 MB Aug 13th 2017 at 1:11pm
345 DimeyevaBrWuch 2011 FloraAralkum ES218 17.pdf 367.94 KB Aug 13th 2017 at 1:11pm
346 BrWuchDimeyeva 2011 VegetationAralkum ES218 33.pdf 1.79 MB Aug 13th 2017 at 1:12pm
347 WuchBrBuras 2011 PrimarySuccessAralkum ES218 38.pdf 982.22 KB Aug 13th 2017 at 1:12pm
348 BrWuch 2011 HalophytesSaltDesertificationAralkum ES218 29.pdf 731.68 KB Aug 13th 2017 at 1:12pm
349 GroenevWuchDimeyJeltschWisselBr 2011 SpatialDistribPlantFunctTypesStressGradSimStudy ES218 11.pdf 371.05 KB Aug 13th 2017 at 1:13pm
350 DimeyOgarAlimbetovaBr 2011 NatureConservatAralSeaRegion ES218 26.pdf 138.84 KB Aug 13th 2017 at 1:13pm
351 WuchBrKaverinDimeyZhamant 2011 PhytomelioratNAralkum ES218 43.pdf 1.79 MB Aug 13th 2017 at 1:13pm
352 WincklerKleinnBr 2011 AralkumSituationRelatedBroaderRegionalContext ES218 25.pdf 1.1 MB Aug 13th 2017 at 1:13pm
353 BrWuch 2011 AralkumManMadeDesertFinalConclusionsComments ES218 6.pdf 50.64 KB Aug 13th 2017 at 1:13pm
356 AKWN 2007 ZukunftBuchenwaldNRW -NaturNRW 4.pdf 893.9 KB Aug 13th 2017 at 1:13pm
358 Br 2009 SustainableAgricultureWithSeawaterRealistic TasksVegSci 10.pdf 1.69 MB Aug 13th 2017 at 1:13pm
359 Br 2008 StellenwertDesDeutschenWiss-SpracheAfgh. inZerwinsky 9.pdf 654.62 KB Aug 13th 2017 at 1:13pm
360 Zerwinsky Br 2008 Bildungspol ZusArb seit 2002 Afgh 45-47.pdf 202.5 KB Aug 13th 2017 at 1:14pm
362A Hom Crespo Br 2000 Durchmesszuwachs Bäume SEcuador GtÖ Würzb 85 PosterAbs.pdf 332.21 KB Aug 13th 2017 at 1:13pm
362B Hom Mora Br 2000 Wachst Populaaufbau 3 Palmen Costa Rica GtÖ Würzb 86 PosterAbs.pdf 497.26 KB Aug 13th 2017 at 1:14pm
366 DalWolterHom Br 2001 Baumartendiv disp Niedersch CostaRica GtÖBremen 33 PosterAbs.pdf 435.55 KB Aug 13th 2017 at 1:14pm
367 DalDalHom Br 2001 Leaching Blätt Nährstzykl tropBergw GtÖ Bremen 34 PosterAbs.pdf 662.31 KB Aug 13th 2017 at 1:14pm
368 DalDalHom Br 2001 VisualPlants Datenbankbas Bestimm tropPfl GtÖBremen 35 PosterAbs.pdf 461.12 KB Aug 13th 2017 at 1:14pm
369 Hom Br 2001 Baumartendiv Waldstrukt SEcuad GtÖBremen 60 PosterAbs.pdf 317.4 KB Aug 13th 2017 at 1:14pm
370 Hom Br 2001 Baumwachstum Ecuad GtÖBremen 59 PosterAbs.pdf 456.47 KB Aug 13th 2017 at 1:14pm
371 Hom MadrgalBr 2001 Baumwachstum CostaRica GtÖBremen 58 PosterAbs.pdf 319.01 KB Aug 13th 2017 at 1:14pm
372B Dal Wolter Dal Hom Br 2002 VisualPl database trop plants SCHIMPERSymp 2, 45 PosterABS.pdf 898.16 KB Aug 13th 2017 at 1:14pm
374 Hoh Br 2002 Waldstruktur Baumdiversit SEcuad GtÖ Gött 118 PosterAbs.pdf 453.7 KB Aug 13th 2017 at 1:16pm
375 Hom Br 2002 Zuwachsmess Baumarten SEcuad GtÖGött 118 PosterAbs.pdf 479.32 KB Aug 13th 2017 at 1:14pm
378 Hom Br 2002 Baumwachst Phänolog SEcuad SCHIMPERSymp 2, 43 PosterABS.pdf 889.46 KB Aug 13th 2017 at 1:16pm
379 Hohm Br 2002 Waldstrukt Divers Ecuad SCHIMPERSymp 2, 44 PosterABS.pdf 839.31 KB Aug 13th 2017 at 1:16pm
380 Gutt Dal Br 2002 Nährstoffauswasch Blätt Billia Calatola Costa Rica GtÖGött 109 PosterAbs.pdf 517.48 KB Aug 13th 2017 at 1:16pm
381A Oesker Dal Br 2002 Räuml Heterogen Kronentraufe Ecuad GtÖ Gött 158 PosterAbs.pdf 524.19 KB Aug 13th 2017 at 1:16pm
381B Oesker Dal Br 2002 Räuml Heterogen Krone Ecuad SCHIMPER Symp 2, 48 PosterABS.pdf 870.44 KB Aug 13th 2017 at 1:16pm
382A Wolter Dal Br 2002 Räuml Variab KFluss Krone Costa Rica GtÖ Gött 207 PosterAbs.pdf 482.45 KB Aug 13th 2017 at 1:16pm
382B Wolter Dal Br 2002 Räuml Variab KFluss Krone Costa Rica SCHIMPER Symp 2, 42 PosterABS.pdf 1.08 MB Aug 13th 2017 at 1:16pm
385 Hom Br 2003 Wachst Phänol BaumEcuad GtÖ Rostock Vortr ABS 46.pdf 735.53 KB Aug 13th 2017 at 1:17pm
386 Hom Br 2003 Baumartendiv CostaRica GtÖ Rostock 128 PosterABS.pdf 477.21 KB Aug 13th 2017 at 1:17pm
387 DalDalBr 2000 Auswasch K Mn Blätt Stoffluß CostaRica GtÖWürzburg 21 VortrAbs.pdf 298.11 KB Aug 13th 2017 at 1:17pm
388 Oesker Dal Br 2003 Räuml Verteil Kronentraufe Ecuad gtöRostok 163.pdf 679.1 KB Aug 13th 2017 at 1:17pm
389 A Hom Br 2004 Structure tree divers S-Ecuador 17. GtÖ p.118 PosterABSTRACT.pdf 585.98 KB Aug 13th 2017 at 1:17pm
389 B Hom Br 2004 Woody plant regenerat canopy gaps comparing 2 sites SEcuador 17.gtö p.119 Poster ABSTRACT.pdf 610.29 KB Aug 13th 2017 at 1:17pm
390 Knörr Hom Br 2004 Popul Struct tree spec altitud grad S Ecuador 17.gtö p.121 Poster ABSTRACT.pdf 884.82 KB Aug 13th 2017 at 1:17pm
392A Br 2005 Ecol Stud Tropics past future 18.gtö Berlin p.16 VortragsABSTRACT.pdf 140.54 KB Aug 13th 2017 at 1:17pm
392B Hom Br 2005 Tree regenerat gaps SEcuador 18.gtö Berlin p.65 PosterABSTRACT.pdf 84.46 KB Aug 13th 2017 at 1:17pm
394 Hell Hom Br 2005 Distrib Piper along altitud grad SEcuador 18.gtö Berlin p.60 PosterABSTRACT.pdf 83.22 KB Aug 13th 2017 at 1:17pm
396 CuevaOrt Hom Br Bx Emck Rich Beck 2005 Seasonality trop mountain forest SEcuador 18.gtö Berlin p.106 PosterABSTRACT.pdf 91.99 KB Aug 13th 2017 at 1:17pm
397 Veste Br Alon 2006 Minirhizo root stud desert agricult COST Sde Boq ABS.pdf 876.09 KB Aug 13th 2017 at 1:17pm
397A Ali Springuel Veste Br 2000 Tamarix nilotica flood tolerant desert pl GtÖWürzburg 55 PosterAbs.pdf 359.88 KB Aug 13th 2017 at 1:17pm
399B Veste Gao Bao Br Littm Yair 2006 Dune stabil Soil crusts Negev Tengger COST SdeBoq ABS .pdf 680.03 KB Aug 13th 2017 at 1:17pm
401A BonillaHerr Veste Br 2006 Rehabiklit saline soils halos NE Brazil. Int Conf Biosaline Agric Tunis p.81 VortragsABSTRACT.pdf 66.54 KB Aug 13th 2017 at 1:17pm
401B Veste Br 2006 Salinity effects root growth tomato irrigation. Int Conf Biosaline Agric Tunis p.164 PosterABSTRACT.pdf 63.8 KB Aug 13th 2017 at 1:17pm
401C Veste Br 2006 Ecophys response tomatoes salinity. Int Conf Biosaline Agric Tunis p.116 PosterABSTRACT.pdf 51.54 KB Aug 13th 2017 at 1:17pm
401D Br 2006 Halophytes salinity agriculture. Int Conf Biosaline Agric Tunis p.29 VortragsABSTRACT .pdf 56.44 KB Aug 13th 2017 at 1:17pm
401E Br 2006 nine zobiomes globe Halophyte occur. Int Conf Biosaline Agric Tunis p.109 PosterABSTRACT.pdf 63.94 KB Aug 13th 2017 at 1:17pm
401F Br 2006 Halophytes useful tools rehabilitation degraded lands. Int Conf Biosaline Agric Tunis p.126 PosterABSTRACT.pdf 61.67 KB Aug 13th 2017 at 1:17pm
401G Br Wuch 2006 Plant coloniz desicc seafloor Small Aral Sea. Int Conf Biosaline Agric Tunis p.127 PosterABSTRACT.pdf 61.51 KB Aug 13th 2017 at 1:17pm
402 BonillaBrVeste 2006 RehabilSalineSoilsPernambucoBrazil Boden+DesertifHHABSTRACT 1.pdf 205.41 KB Aug 13th 2017 at 1:17pm
403 VesteLittmRussowYairBr 2006 BiolSoilCrustEcosystemProcDrylands Boden+DesertifHH ABSTRACT 2.pdf 102.81 KB Aug 13th 2017 at 1:17pm
407 DimeyBrWuch 2008 Flora Aralkum Kazak News Nat Acad Sci Kaz RUSS 6.25-31.pdf 176.36 KB Aug 13th 2017 at 1:17pm
411 HomBrGünterRollenbLeuschner 2010 TreeDiversForestStructureProductivityAltidGradEcuad Biotrop 9.pdf 258.71 KB Aug 13th 2017 at 1:17pm
412 Br Bergwelt Iran Flora Veget 2011 in Gratzl Kostka.pdf 1.21 MB Aug 13th 2017 at 1:17pm
413 Br Veste Littm Yair 2010 Arid sand dunes Nizzana bio crusts BSC workshop Zellingen.pdf 1.25 MB Aug 13th 2017 at 1:17pm
415 Noroozi Pauli Grabh Br 2011 Subnival Iran Biodiv Conserv.pdf 12.85 MB Aug 13th 2017 at 1:19pm
416 Br 2011 Veget Zonen Klima Gest heut morg Passau.pdf 12.15 MB Aug 13th 2017 at 1:20pm
417 Br 2011 verlor Aralsee Passau Kontaktstud Geogr 11 91-100.pdf 5.01 MB Aug 13th 2017 at 1:20pm
418 BrWuch 2011 AralseeZukunft LOZAN2Aufl WarnsignalKlima 9.pdf 1.92 MB Aug 13th 2017 at 1:20pm
419 BrKüppers 2011 NutzpflAridSemiaridGeb LOZAN2Aufl WarnsignalKlima 11.pdf 3.35 MB Aug 13th 2017 at 1:20pm
420A Br Rafiqp 2011 Field Guide Afghan neues Buch Schulen Univ Afgh. inKostka, Wakhan Int RogerSenacl GedSympos Graz 19-26.pdf 5.71 MB Aug 13th 2017 at 1:21pm
420B Br Rafiqp 2010 Field Guide Afgh-Flora Veget. 20.Treff AKH Erlangen, p.39. PosterABSTRACT.pdf 101.54 KB Aug 13th 2017 at 1:21pm
421 BrRafiqpoor 2011 Vielfalt Flora Vegetation Afghan.pdf 1.13 MB Aug 13th 2017 at 1:23pm
421 BrRafiqpoor 2011 Vielfalt Flora Vegetation Afghan GeogrRundsch 11.pdf 11.52 MB Aug 13th 2017 at 1:24pm
422 Br 2012 AralseaToAralkumEcolDisasterHaloParadise ProgrBotany 48.pdf 1.72 MB Aug 13th 2017 at 1:23pm
425 Noroozi Pauli Grabh Br 2012 Refugia cold-adapt spec subniv nival Iran GtÖ Erlangen 107 PosterAbs.pdf 566.61 KB Aug 13th 2017 at 1:24pm
428 Veste Br Eggert Littmann 2011 Veget Pattern Sand Dunes Controlled Biol SoilCrusts NNegev BADR 16.pdf 2.16 MB Aug 13th 2017 at 1:24pm
433 Br König Jankows Minnich Posch Sagerer Veste 2001 Minirhizotron Bildauswert AK Exp Ökol GfÖ 6Tag.Gö ABSTRACT p.16.pdf 561.84 KB Aug 13th 2017 at 1:24pm
434 Br Richa Scheff Veste Waisel 2001 Wurzeln in Luft AK Exp Ökol GfÖ 6Tag.Gö ABSTRACT p.17.pdf 580.45 KB Aug 13th 2017 at 1:24pm
436 Helms Mohr Weyl Veste Br Seely 2000 Ions Sand dune plants CNamib GtÖWürzburg 77 PosterAbs.pdf 194 KB Aug 13th 2017 at 1:24pm
437 Mohr Helms Wey Veste Br Seely 2000 GtÖ Würzb 108 PosterAbs.pdf 266.37 KB Aug 13th 2017 at 1:24pm
438 Mohr Helms Weyl Veste Br Seely 2000 sand dune veget Namib gfö 30,82.pdf 1.81 MB Aug 13th 2017 at 1:24pm
447 Br 2008 Pamir Dach Welt Ressourc Desertifik Abstract.pdf 1.01 MB Aug 13th 2017 at 1:24pm
450 Br 2009 Desertific global issue PlenarMarburg.pdf 3.07 MB Aug 13th 2017 at 1:25pm
453 Br 2011 Wer läuft OL in D. OL in Westfalen 5.pdf 10.4 MB Aug 13th 2017 at 1:25pm
457 Djamali Brewer Br Jackson 2012 ClimaticDeterminismphytogeogrRegionalSWCAsia FunctEcol 13.pdf 2.04 MB Aug 13th 2017 at 1:26pm
458 Matinzadeh Br Mirmassoumi Akhani 2013 IonRelationshipHaloIranianChenopodssoil PlantSoil 16.pdf 672.31 KB Aug 13th 2017 at 1:26pm
459 Br Hedge Rafiqp 2013 Vasc Plants Afgh augm Checklist PLOSWA 8 Edinburgfh 9-10 ABSTRACT.pdf 742.44 KB Aug 13th 2017 at 1:26pm
460 Br Hedge Rafiqp 2013 Visualiz flora veget Afgh 14.OptimaMeeting Palermo ABSTRACT p.103.pdf 687.83 KB Aug 13th 2017 at 1:26pm
462 Br 2014 Pflanzenleben SWAsien Naturwiss Rdsch 3.pdf 3.77 MB Aug 13th 2017 at 1:26pm
464 VesteTodtBr 2014 Plicosepalus acaciae Hemiparas SArava Abstract COSTActionCoimbra 1.pdf 41.82 KB Aug 13th 2017 at 1:26pm
465 VesteTodtBr 2004 Influence Host Parasite Plicosepalus Annals of Bot DOI.pdf 1.49 MB Aug 13th 2017 at 1:26pm
469 470 Scientific Journal of Orienteering_2014;19(2).pdf 25.55 MB May 3rd 2020 at 9:20am
473 Br 2014 Aral BarsaKelmes.pdf 2.17 MB Aug 13th 2017 at 1:26pm
474 Br 2015 Bibliotheca Afghanica. Der Beginn 1975-1985 Leitidee 43-50.pdf 4.4 MB Aug 13th 2017 at 1:29pm
476 Br 2016 Iconograph floras checklists future res IranoTuran flor region 15.OPtima Montpellier p.71.pdf 552.72 KB Aug 13th 2017 at 1:27pm
479 Br+Rafiqpoor 2016 in LOZAN Biodivers.pdf 2.83 MB May 3rd 2020 at 9:19am
486 Ataei_etal 2016_Boraginales_BONN_NA_SWB.pdf 2.24 MB Aug 13th 2017 at 1:27pm
488 Br Vi Aj Gh etal 2015 FlIranica 181 Simaroubac.pdf 4.27 MB May 3rd 2020 at 9:20am
489 Hom Stattegger Link Br Sanchez 2016 LongTerm three palm spec CR.pdf 2.09 MB Aug 13th 2017 at 1:29pm
490 Br 2018 PoB80 Global Ecology 50years.pdf 4.08 MB May 3rd 2020 at 9:21am
491 Chapter 02_Global Biodiversity-Volume 1_Final Draft_03_140818.pdf 18.56 MB May 3rd 2020 at 9:23am
492 Schmiedel_Breckle 2018 ExtremEr Veget LOZAB Buch 39-46.pdf 2.34 MB May 3rd 2020 at 9:21am
496 vanKleunen_etal_2018_GloNAF Ecology.pdf 234.85 KB May 3rd 2020 at 9:22am
497 Br+Rafiqpoor 2020 Noroozi-Hindu Kush 43-91.pdf 4.84 MB Mar 20th 2021 at 11:05am
502 Br 2020 An Ecol Overview of Haloph Aralkum Area _ SpringerLink.pdf 6.36 MB Mar 20th 2021 at 11:06am
504 Loz Br Warnsign Klim Städte Weltbevölkerung_Landflucht-2.pdf 2.22 MB Mar 20th 2021 at 11:06am
505 Loz Br et et WARNSIGNAL_KLIMA_Die_Staedte.pdf 37.75 MB Mar 20th 2021 at 11:10am
507 Loz et al 2020 Gebirge Zusammenfassung ch1-1.pdf 3.88 MB Mar 20th 2021 at 11:07am
508 Br+Mergili 2020 Bergstürze Warnsign Hochgeb.pdf 6.92 MB Mar 20th 2021 at 11:08am
509 Rafiqpoor+Br 2020 Papallacta Warnsign Hochgeb.pdf 4.29 MB Mar 20th 2021 at 11:09am

Directory Listing Script © 2021 Evoluted, Web Design Sheffield